Dewpoint
74 74 75 76 77 76 76 77 76 76 77 77 77 77 77 77 77 77 77 77 76 76 77 77 77 78 78 77 77 77 77 77 77 76 76 76 76 76 76 75 75 75 75 75 75 75 75 74 74 74 75 75 75 74 74 74 74 73 74 75 74 74 75 75 75 75 76 76 76 76 76 76 75 75 74 74 75 75 75 75 75 74 75 74 74
73 74 75 76 77 77 76 76 76 76 76 76 76 77 77 77 77 77 77 77 77 77 77 77 77 77 77 77 77 77 77 77 77 76 76 76 76 76 76 76 75 75 75 75 75 75 75 74 74 74 74 74 75 75 74 73 74 73 73 74 74 75 75 74 75 75 76 76 76 76 75 75 75 75 74 74 74 75 75 75 75 75 74 74 73
74 74 75 76 77 77 77 76 76 77 76 76 76 76 76 77 77 76 77 77 77 77 77 77 77 77 77 77 77 77 77 76 76 76 76 76 76 76 76 75 75 75 75 75 75 75 76 75 74 75 74 74 74 75 75 74 74 74 74 74 75 74 74 74 75 75 75 76 76 76 76 75 75 75 74 74 74 75 75 75 75 75 73 74 73
74 75 75 76 77 77 77 76 76 76 76 76 76 76 76 76 77 77 77 77 77 77 77 77 77 77 77 77 77 77 76 76 76 76 76 76 76 76 76 75 75 75 76 76 75 76 75 75 75 75 75 75 74 74 75 75 75 74 74 74 74 75 75 74 75 75 75 75 75 75 77 76 75 75 74 74 74 74 75 75 75 75 74 74 73
74 75 75 76 76 77 77 76 76 76 76 76 76 76 76 76 76 76 77 77 77 77 77 77 77 77 77 77 76 76 76 76 76 76 76 76 75 75 75 75 75 76 76 76 75 75 76 75 75 75 75 75 74 75 74 74 75 75 75 75 75 75 75 74 75 75 75 74 75 76 74 74 74 75 73 74 74 74 75 75 75 74 74 74 74
74 74 75 76 76 76 77 77 76 76 76 76 76 76 76 76 76 76 77 77 77 77 77 77 77 77 77 76 76 76 76 76 76 76 76 76 75 75 75 75 75 75 75 75 76 76 76 76 75 75 75 75 75 75 75 74 74 75 75 75 75 75 75 74 74 74 74 75 75 75 73 74 74 75 74 74 74 74 75 75 75 74 74 74 74
74 75 75 76 76 76 77 77 77 76 76 76 76 76 76 76 76 76 76 77 77 77 77 77 77 77 77 77 76 77 76 76 76 76 76 75 75 75 75 75 75 75 75 75 75 75 75 75 75 75 75 74 74 75 74 74 74 74 75 75 75 75 74 74 74 74 75 75 74 74 73 74 74 75 74 74 74 74 75 75 74 74 74 74 74
74 75 75 75 76 76 78 78 77 77 77 77 77 76 76 76 76 76 76 76 77 77 77 77 77 77 77 77 76 76 76 76 76 76 75 75 75 75 75 75 76 76 75 75 75 75 75 75 75 75 75 75 74 74 74 74 74 74 75 75 75 75 74 75 75 75 75 75 75 74 74 74 74 74 75 75 74 75 75 75 75 74 74 74 74
74 74 75 75 75 77 78 77 78 77 77 76 77 77 77 77 77 76 76 76 76 77 77 77 77 77 77 76 76 76 76 76 76 76 75 75 75 76 75 75 75 76 75 75 75 75 75 75 74 75 75 74 74 74 74 74 74 74 74 74 74 74 74 74 74 75 75 75 75 74 74 74 74 73 75 75 73 75 75 74 74 75 74 74 74
73 74 74 75 75 77 77 77 77 77 77 77 77 77 77 77 76 76 76 76 76 77 77 77 77 77 77 76 76 76 76 76 76 75 75 76 76 76 76 76 76 76 76 76 75 75 75 74 74 75 75 74 74 74 73 73 74 74 74 74 74 74 74 74 74 74 74 75 75 75 74 75 73 73 74 75 73 74 75 75 74 74 74 74 74
73 73 74 75 76 78 77 77 77 77 77 76 76 76 76 77 77 77 77 77 77 77 78 77 77 77 77 76 76 76 76 75 75 75 75 76 75 76 76 75 76 76 76 76 76 76 75 75 75 75 75 75 73 74 74 74 74 74 74 74 74 74 75 74 74 74 75 75 75 74 76 75 72 72 74 75 73 74 75 75 75 75 74 73 75
73 74 75 75 77 78 77 77 77 77 77 77 77 77 77 77 77 77 77 77 77 77 77 77 77 77 76 76 76 76 76 76 76 75 76 76 76 75 75 75 76 76 76 76 76 76 75 76 75 75 75 74 74 73 74 74 75 74 74 74 74 74 73 75 73 74 74 75 75 74 74 74 72 72 74 75 74 74 74 75 75 74 74 74 74
73 74 75 76 77 78 78 77 77 77 77 77 77 77 77 77 77 78 78 78 77 77 77 77 77 76 76 76 76 76 76 76 75 76 76 76 76 75 75 75 75 76 76 77 76 76 76 76 75 75 75 74 74 74 74 74 74 75 74 74 74 74 74 74 74 73 74 74 75 75 74 73 73 73 74 74 75 74 74 74 74 74 74 73 73
73 74 75 76 76 78 77 77 77 77 77 77 77 77 77 77 77 78 77 77 77 77 77 77 77 77 76 76 76 76 76 76 76 76 76 76 76 75 75 75 75 75 75 76 76 76 76 76 76 76 76 75 75 74 75 75 75 75 75 74 74 73 74 74 73 74 74 74 75 75 74 74 73 74 74 74 75 75 74 74 74 74 74 74 74
73 74 75 76 76 76 77 78 77 77 77 77 77 77 77 77 77 77 77 77 77 77 77 77 77 77 76 76 76 76 76 76 76 76 76 76 76 75 75 76 75 75 75 76 76 76 77 76 76 76 76 76 75 75 75 75 75 75 75 74 74 74 74 73 73 73 73 74 75 74 74 74 75 74 74 74 75 75 74 74 75 74 75 74 74
74 75 76 76 76 76 76 78 78 77 77 77 77 77 77 77 77 77 77 76 76 77 77 77 76 76 76 76 76 76 77 77 77 77 76 76 76 76 76 76 76 76 76 76 76 77 77 77 77 77 77 76 75 76 76 76 75 75 74 74 74 74 74 74 74 73 73 73 74 74 74 74 75 75 75 75 74 75 75 74 75 74 75 75 74
75 75 75 76 76 76 76 76 77 78 78 77 77 77 77 77 77 76 77 76 76 76 77 77 77 77 76 77 77 77 77 77 77 77 77 76 76 76 76 76 77 77 77 77 77 77 77 77 77 77 77 77 76 76 76 76 76 75 75 75 74 74 74 74 73 73 73 74 74 74 74 74 75 75 75 75 75 74 75 75 74 74 74 74 75
74 75 75 76 76 76 77 77 77 77 77 77 77 78 78 77 77 77 77 77 77 77 77 77 77 77 77 77 77 78 77 77 77 77 77 77 77 77 77 77 77 77 77 77 77 77 77 77 77 77 77 77 76 76 76 76 76 75 74 75 75 75 74 74 74 74 73 75 74 74 74 75 75 74 74 75 75 75 75 75 75 74 74 75 75
74 74 75 75 76 76 76 76 77 77 77 77 77 77 77 77 77 77 77 77 77 77 77 77 77 77 77 78 78 78 78 77 77 78 77 77 77 77 77 77 77 78 78 77 77 77 77 77 77 77 77 77 77 76 76 76 75 75 75 75 75 75 74 74 73 73 74 74 73 74 74 75 74 74 74 75 76 75 76 74 74 75 74 74 75
73 73 74 75 75 75 76 76 76 76 76 76 76 77 77 77 77 77 77 77 77 77 77 77 77 78 78 78 78 78 78 77 78 77 78 77 77 77 77 78 78 78 78 77 78 78 78 78 77 77 77 77 77 77 77 77 77 76 76 75 74 75 74 73 73 73 73 73 74 73 74 75 74 73 74 74 75 74 75 74 74 74 74 74 74
71 72 73 74 74 74 75 75 76 76 76 76 76 76 77 78 77 77 78 78 78 78 77 77 77 77 78 78 78 77 77 77 77 77 78 78 78 78 78 79 79 78 78 78 78 78 78 78 78 77 77 78 78 78 77 77 77 77 75 75 75 74 73 73 72 73 73 73 74 73 74 75 74 73 73 74 75 75 74 74 74 75 74 74 74
70 71 72 73 73 73 74 75 76 76 76 76 76 76 77 78 77 77 77 77 77 77 77 76 77 77 78 77 77 78 77 76 76 78 77 78 78 79 79 79 79 79 78 78 78 78 78 78 78 77 77 77 77 77 76 77 77 77 76 76 75 73 72 73 73 73 73 73 74 74 74 74 74 74 73 74 75 74 74 74 74 75 74 74 74
70 71 72 72 73 73 74 75 75 75 76 76 76 76 76 76 77 77 77 78 78 77 77 77 76 77 77 77 78 77 77 77 77 77 77 78 78 79 79 80 80 79 79 79 79 79 79 78 78 78 78 78 78 76 75 74 74 77 77 74 72 72 72 72 73 73 73 73 73 74 75 73 73 74 73 74 75 74 74 74 73 75 74 73 74
70 71 71 71 73 73 74 75 74 75 75 75 75 76 76 76 77 76 76 76 77 77 77 76 76 76 76 77 77 77 77 77 79 79 79 78 77 79 80 80 80 80 79 79 80 79 79 78 78 78 79 78 75 75 75 74 74 73 73 73 73 73 72 72 73 73 73 73 73 75 74 74 74 74 74 74 75 74 74 73 73 75 75 74 74
70 70 72 71 72 73 74 74 74 75 75 75 75 75 76 76 76 76 76 76 76 76 76 76 76 76 76 76 76 76 76 76 76 76 76 76 76 76 76 77 77 77 80 78 78 77 78 76 76 76 75 75 74 75 74 74 74 74 73 73 73 73 73 73 73 73 73 73 74 75 74 74 74 74 74 74 74 74 74 74 74 75 75 75 74
69 69 71 71 72 72 73 74 73 74 75 74 75 75 77 76 76 76 76 76 76 76 76 76 76 76 76 76 76 76 76 76 76 75 75 74 74 74 74 74 76 77 79 78 77 76 76 75 75 75 74 74 74 75 74 75 74 74 73 73 73 73 73 73 73 73 73 73 74 75 74 74 73 73 74 74 74 75 75 74 74 74 74 75 75
68 69 70 70 71 71 72 73 72 73 74 74 75 75 76 76 76 76 76 76 76 76 76 76 76 76 75 75 75 75 75 75 74 74 74 74 73 74 74 75 75 76 77 76 76 76 76 75 74 74 74 74 73 74 74 74 75 74 74 74 73 73 73 73 73 73 73 74 74 75 74 74 73 74 73 74 74 75 75 74 74 75 74 74 75
67 67 68 69 71 70 70 71 71 72 73 74 74 74 76 76 75 77 76 76 76 75 75 75 75 75 75 75 76 75 75 74 73 73 73 73 73 74 74 74 74 75 76 77 76 75 75 75 74 74 75 74 74 75 75 74 74 74 74 74 74 73 73 73 73 73 74 74 74 73 73 74 73 73 74 73 73 74 75 74 74 74 74 74 74
65 65 65 66 69 69 69 70 71 72 73 73 73 74 75 75 75 75 75 77 76 75 75 75 75 75 75 75 76 75 74 74 72 71 72 72 72 73 73 73 73 74 76 76 76 74 74 74 74 73 74 74 74 74 74 74 74 74 74 74 74 73 73 73 73 73 74 74 74 74 74 74 74 73 74 74 74 74 75 75 75 74 74 74 74
64 64 64 65 66 67 68 69 70 72 72 72 72 73 74 75 75 74 75 77 76 75 75 74 74 74 74 75 75 75 74 73 71 70 72 71 70 70 70 71 72 73 75 75 75 74 75 73 73 73 73 74 74 74 75 74 74 74 74 74 74 74 73 72 73 73 73 74 74 74 75 73 73 74 74 73 74 74 75 75 75 74 74 74 73
65 60 62 64 65 64 67 69 70 73 71 70 71 72 73 73 74 73 73 75 75 75 75 73 73 73 73 75 75 75 74 71 68 69 69 69 69 69 68 68 69 71 73 73 74 74 73 73 72 72 72 73 74 75 75 73 72 73 73 72 72 73 73 73 72 73 73 74 73 73 73 73 73 74 74 74 73 73 74 75 75 74 74 73 72
66 62 59 63 63 62 66 67 69 70 70 69 71 71 71 72 72 71 71 73 74 72 72 71 72 70 71 73 74 74 74 71 67 68 68 68 68 68 69 69 69 71 72 72 73 73 73 73 73 73 73 73 74 75 74 72 71 72 72 72 72 72 72 73 73 73 73 73 72 72 72 73 73 73 73 74 74 73 73 74 74 74 73 73 73
67 67 65 60 60 61 64 67 67 69 69 68 69 69 70 70 70 69 70 72 72 70 69 68 68 69 70 70 72 73 74 72 68 68 72 68 69 70 72 72 71 71 72 72 73 72 73 73 72 74 74 73 72 73 73 73 72 72 72 72 72 72 72 72 73 73 72 72 72 72 72 73 72 73 73 74 74 73 73 74 74 74 74 74 74
70 68 63 62 61 60 64 66 66 68 69 67 69 69 69 69 70 69 72 70 72 71 70 69 70 71 70 71 72 72 72 71 69 70 71 71 71 72 72 72 72 73 74 73 72 72 72 73 74 72 75 73 72 72 72 72 72 71 70 70 71 72 72 72 72 73 72 72 71 71 72 72 72 72 72 74 74 74 74 74 74 74 75 75 75
69 68 64 66 67 66 67 66 68 67 70 71 70 69 69 69 70 69 70 71 71 70 69 69 70 69 69 70 72 72 72 71 72 72 72 71 73 75 74 72 73 75 74 74 73 73 73 73 73 72 72 72 72 73 72 72 71 71 70 70 71 72 72 72 72 72 71 71 72 72 72 72 72 72 72 73 74 74 74 74 74 74 74 74 74
70 69 70 66 67 68 69 69 72 69 69 73 71 71 72 72 72 74 71 71 71 72 71 70 70 71 73 74 74 75 76 74 73 73 72 71 74 75 75 75 75 74 74 73 73 73 73 73 74 73 72 71 72 72 72 72 71 71 70 70 70 73 73 72 72 72 72 71 71 72 72 72 71 72 73 72 72 73 74 74 74 74 75 74 74
73 72 70 70 71 72 73 73 74 75 76 71 73 73 73 74 74 74 73 75 73 72 72 71 71 71 72 73 75 78 77 78 78 78 73 72 73 75 75 75 75 74 73 73 73 74 74 74 73 74 72 71 71 72 72 71 71 70 70 70 69 72 73 72 73 73 73 71 71 71 71 72 72 72 73 72 72 73 74 74 74 74 74 74 75
71 72 73 72 71 72 74 74 73 75 76 77 76 75 75 74 74 76 78 75 76 76 75 74 74 74 73 72 74 75 77 76 76 75 77 77 75 76 75 75 75 74 73 73 73 75 74 73 72 73 73 71 71 71 71 71 71 71 70 70 69 70 72 73 74 75 72 72 71 71 72 72 72 72 72 72 72 72 72 73 74 73 75 75 74
70 71 71 72 72 72 73 74 74 74 75 76 77 76 76 76 76 76 75 76 76 75 75 74 75 75 75 75 75 75 76 76 76 76 76 77 75 75 75 76 76 75 74 74 74 75 74 73 73 72 72 73 72 72 72 71 71 71 70 70 70 71 72 72 74 73 72 72 72 72 72 72 72 72 71 71 72 72 72 72 73 73 74 75 75
73 72 73 72 72 72 72 73 74 74 75 76 77 77 76 75 74 74 73 75 74 75 74 74 75 75 77 77 75 75 75 76 75 75 74 74 72 73 73 75 75 75 74 73 72 73 72 71 71 72 71 72 72 71 72 71 70 69 70 69 71 71 71 73 72 72 73 72 72 73 72 72 72 71 72 71 71 72 71 71 73 74 74 74 74
72 73 73 73 72 72 73 72 73 73 75 76 76 76 75 73 74 75 74 74 74 74 73 74 75 75 75 76 76 75 74 74 74 75 74 74 73 73 72 74 74 74 74 74 74 73 73 72 73 72 71 70 70 71 71 71 68 66 66 67 70 71 74 73 72 71 72 72 72 72 72 71 71 71 72 72 71 71 72 72 72 73 73 73 74
71 72 72 73 73 73 72 73 73 73 74 75 75 76 75 75 75 74 74 73 73 73 73 73 74 75 75 75 74 75 74 74 74 73 73 73 72 72 73 72 73 73 74 74 74 75 73 73 72 70 71 71 69 71 71 69 67 65 64 65 67 69 71 72 72 72 72 72 72 72 72 71 71 71 72 72 72 71 71 71 72 72 73 73 73
71 71 72 73 73 73 73 74 73 73 74 75 75 75 75 75 74 73 72 72 74 74 74 74 75 75 75 75 75 75 74 73 73 72 72 72 72 72 72 73 72 72 71 70 72 73 73 73 72 70 69 70 72 72 72 69 66 67 66 65 61 60 66 67 69 71 72 71 72 72 72 71 71 72 72 72 72 72 71 71 71 72 72 72 72
72 71 72 72 73 74 72 72 73 74 74 75 75 76 76 75 74 74 74 74 72 74 74 74 74 74 74 76 75 74 73 72 73 73 73 73 72 72 72 72 71 72 72 71 73 72 72 72 72 73 71 69 69 69 73 70 69 67 63 62 61 61 58 60 62 65 71 72 72 72 72 72 72 72 72 72 72 72 72 72 71 72 72 72 73
72 71 72 72 73 73 73 72 72 72 74 76 76 76 75 73 72 72 72 71 71 72 71 71 73 73 74 74 74 74 74 73 73 73 73 72 72 72 72 71 71 72 72 72 72 72 73 73 73 71 70 68 68 69 71 71 69 70 66 62 59 59 58 60 62 63 70 70 71 72 72 71 71 72 72 71 71 71 72 72 72 72 72 72 72
72 73 72 73 72 72 72 72 73 73 74 76 76 76 74 72 70 69 69 68 68 69 69 70 71 71 71 73 74 74 74 73 72 72 72 73 72 72 71 69 71 71 72 73 73 73 73 72 72 70 70 70 68 68 69 69 67 71 69 64 62 59 59 61 61 58 65 70 70 72 72 72 71 72 72 71 70 71 72 71 71 71 72 72 72
72 73 73 73 72 72 72 72 73 74 75 76 76 75 73 72 71 69 69 68 68 69 71 72 72 71 72 73 73 73 73 72 72 71 72 72 71 70 70 71 71 72 74 72 72 72 72 72 73 71 70 71 71 68 68 66 64 67 68 69 69 69 64 61 59 61 58 61 69 70 71 71 72 72 72 71 70 70 71 72 71 71 71 72 72
73 73 73 73 73 73 73 74 74 75 75 75 75 74 73 72 70 70 70 69 69 70 71 73 72 73 71 72 72 72 72 72 71 71 70 71 70 71 72 72 72 73 74 72 72 73 73 73 73 72 72 72 71 70 67 61 60 57 60 56 59 67 65 64 62 60 59 57 59 66 69 70 72 72 72 72 71 70 70 71 71 71 71 72 73
73 73 73 73 73 74 74 73 73 74 73 74 74 74 74 72 71 71 71 71 72 73 73 74 73 73 71 71 71 71 72 72 71 70 69 70 71 72 72 72 72 72 73 73 73 73 73 72 71 70 70 64 65 64 61 60 57 54 51 49 49 48 51 53 60 63 61 57 57 63 65 68 70 72 73 73 72 72 71 71 71 71 71 72 73
72 74 73 73 73 73 73 73 73 73 73 74 74 73 73 74 72 72 71 71 72 71 71 71 72 71 71 70 70 70 70 70 71 71 70 70 71 72 72 72 72 72 74 72 73 73 72 71 71 68 63 60 60 59 59 58 56 52 49 52 49 48 48 49 51 54 58 57 54 55 58 65 64 64 69 72 72 72 72 72 72 72 72 72 72
72 73 73 73 73 73 72 72 73 73 73 74 73 73 73 73 72 72 72 71 71 71 69 70 71 71 70 70 70 70 70 70 70 71 72 72 72 72 72 72 73 74 74 73 72 72 71 69 65 63 59 58 56 56 54 54 52 50 47 49 49 48 50 51 49 56 57 55 54 53 55 58 58 55 57 67 71 72 72 72 72 72 72 72 72